EW6055 Weather Reports


Display with metric or nautical units.
time (UTC)temp
F
wind
direction
speed
MPH
gust
MPH
rain 1hr
in
rain 24hr
in
rain mn
in
humidity
%
barometer
mb
20260903202523 60 133 1.0 2.0 0.00 0.45 0.16 81 1008.2
20260903202002 60 124 1.0 4.0 0.00 0.45 0.16 79 1008.2
20260903201502 60 122 0.0 4.0 0.00 0.46 0.16 80 1008.2
20260903201002 60 108 0.0 1.0 0.00 0.46 0.16 82 1008.2
20260903200523 60 108 0.0 1.0 0.00 0.47 0.16 82 1008.2
20260903200002 60 0 0.0 0.0 0.00 0.48 0.16 83 1008.2
20260903195502 60 130 0.0 1.0 0.00 0.48 0.16 83 1008.2
20260903195002 59 134 0.0 3.0 0.00 0.50 0.16 83 1008.2
20260903194502 59 143 1.0 3.0 0.01 0.50 0.16 82 1008.2
20260903194002 59 128 1.0 3.0 0.01 0.52 0.16 81 1008.3
20260903193502 59 120 1.0 3.0 0.02 0.54 0.16 83 1008.2
20260903193002 60 123 1.0 3.0 0.03 0.55 0.16 83 1008.2
20260903192502 60 132 1.0 3.0 0.03 0.56 0.16 85 1008.3
20260903192002 59 138 1.0 2.0 0.04 0.58 0.16 85 1008.4
20260903191502 59 149 1.0 2.0 0.04 0.60 0.16 86 1008.3
20260903191002 59 164 1.0 2.0 0.04 0.61 0.16 88 1008.3
20260903190502 59 145 1.0 2.0 0.04 0.61 0.16 89 1008.4
20260903190002 58 133 1.0 2.0 0.04 0.62 0.16 88 1008.4
20260903185523 58 142 1.0 2.0 0.04 0.62 0.16 87 1008.4
20260903185002 58 158 1.0 2.0 0.04 0.63 0.16 87 1008.5
20260903184523 58 161 1.0 2.0 0.03 0.63 0.15 86 1008.5
20260903184002 58 151 1.0 4.0 0.03 0.63 0.15 86 1008.5
20260903183523 58 161 1.0 4.0 0.02 0.62 0.14 84 1008.6
20260903183002 59 170 1.0 3.0 0.01 0.61 0.13 83 1008.5
20260903182502 59 174 1.0 2.0 0.01 0.61 0.13 84 1008.3
20260903182002 59 188 1.0 3.0 0.00 0.61 0.12 84 1008.3
20260903181502 59 187 1.0 5.0 0.00 0.61 0.12 82 1008.4
20260903181002 60 186 1.0 5.0 0.00 0.62 0.12 80 1008.4
20260903180523 60 183 1.0 4.0 0.00 0.62 0.12 78 1008.4
20260903180023 61 177 1.0 3.0 0.00 0.63 0.12 77 1008.3
20260903175502 61 162 1.0 4.0 0.00 0.64 0.12 79 1008.1
20260903175002 61 163 1.0 4.0 0.00 0.64 0.12 79 1008.1
20260903174502 60 165 1.0 8.0 0.00 0.65 0.12 81 1008.0
20260903174002 60 172 1.0 8.0 0.00 0.66 0.12 84 1008.0
20260903173502 60 188 1.0 3.0 0.00 0.66 0.12 85 1008.0
20260903173002 59 163 1.0 3.0 0.00 0.66 0.12 85 1008.0
20260903172502 59 137 0.0 3.0 0.00 0.67 0.12 86 1008.0
20260903172023 59 131 0.0 1.0 0.00 0.68 0.12 87 1008.0
20260903171502 58 111 0.0 1.0 0.00 0.69 0.12 89 1008.1
20260903171002 58 114 0.0 1.0 0.00 0.69 0.12 90 1008.1
20260903170502 58 119 1.0 2.0 0.00 0.70 0.12 90 1008.2
20260903170002 58 122 1.0 2.0 0.00 0.70 0.12 91 1008.2
20260903165502 57 124 1.0 2.0 0.00 0.70 0.12 91 1008.3
20260903165002 57 130 0.0 2.0 0.00 0.70 0.12 91 1008.3
20260903164502 57 0 0.0 0.0 0.00 0.70 0.12 91 1008.4
20260903164002 57 0 0.0 0.0 0.00 0.70 0.12 92 1008.4
20260903163502 56 0 0.0 0.0 0.00 0.70 0.12 92 1008.4
20260903163002 56 131 0.0 1.0 0.00 0.70 0.12 92 1008.4
20260903162502 56 144 1.0 4.0 0.00 0.70 0.12 93 1008.4
20260903162002 56 152 1.0 4.0 0.01 0.70 0.12 94 1008.3
20260903161502 56 246 0.0 2.0 0.01 0.70 0.12 94 1008.3
20260903161002 56 261 0.0 1.0 0.01 0.70 0.12 94 1008.3
20260903160502 56 252 0.0 1.0 0.02 0.70 0.12 94 1008.4
20260903160002 55 234 0.0 1.0 0.03 0.70 0.12 94 1008.4
20260903155523 55 221 0.0 1.0 0.03 0.70 0.12 94 1008.4
20260903155023 55 220 0.0 1.0 0.04 0.70 0.12 94 1008.4
20260903154502 55 0 0.0 0.0 0.04 0.70 0.12 94 1008.4
20260903154002 55 117 0.0 1.0 0.05 0.70 0.12 94 1008.4
20260903153502 54 117 0.0 1.0 0.05 0.70 0.12 93 1008.4
20260903153002 54 126 0.0 1.0 0.06 0.70 0.12 93 1008.4
20260903152502 54 111 0.0 2.0 0.07 0.70 0.12 93 1008.3
20260903152002 54 104 1.0 2.0 0.07 0.69 0.11 93 1008.3
20260903151502 54 103 1.0 2.0 0.07 0.69 0.11 93 1008.4
20260903151003 54 109 1.0 2.0 0.07 0.69 0.11 93 1008.4
20260903150502 54 123 0.0 2.0 0.06 0.68 0.10 93 1008.4
20260903150002 54 133 0.0 2.0 0.06 0.67 0.09 92 1008.4
20260903145502 54 132 1.0 6.0 0.06 0.67 0.09 92 1008.3
20260903145002 54 129 1.0 6.0 0.05 0.66 0.08 92 1008.3
20260903144502 54 135 1.0 2.0 0.05 0.66 0.08 92 1008.2
20260903144023 55 142 1.0 2.0 0.04 0.65 0.07 92 1008.2
20260903143523 55 152 1.0 2.0 0.04 0.65 0.07 91 1008.2
20260903143002 55 168 0.0 2.0 0.03 0.64 0.06 91 1008.3
20260903142502 55 164 1.0 2.0 0.02 0.63 0.05 91 1008.2
20260903142002 55 148 1.0 2.0 0.01 0.62 0.04 91 1008.1
20260903141502 55 147 1.0 3.0 0.01 0.62 0.04 90 1008.1
20260903141023 55 140 1.0 3.0 0.01 0.62 0.04 90 1008.0
20260903140523 55 122 1.0 3.0 0.01 0.62 0.04 90 1008.0
20260903140002 55 116 1.0 2.0 0.00 0.61 0.03 90 1008.0
20260903135502 55 121 1.0 3.0 0.00 0.61 0.03 89 1007.9
20260903135002 55 122 1.0 3.0 0.00 0.61 0.03 90 1007.9
20260903134502 55 129 1.0 2.0 0.00 0.61 0.03 90 1007.8
20260903134023 55 135 0.0 2.0 0.00 0.61 0.03 90 1007.8
20260903133502 55 151 0.0 1.0 0.00 0.61 0.03 90 1007.7
20260903133002 55 164 0.0 2.0 0.00 0.61 0.03 90 1007.8
20260903132502 55 151 1.0 2.0 0.00 0.61 0.03 90 1007.6
20260903132002 55 129 1.0 2.0 0.00 0.61 0.03 90 1007.6
20260903131502 54 119 1.0 3.0 0.00 0.61 0.03 91 1007.5
20260903131002 54 122 1.0 3.0 0.00 0.61 0.03 91 1007.5
20260903130502 54 128 0.0 2.0 0.00 0.61 0.03 91 1007.6
20260903130002 54 122 1.0 2.0 0.00 0.61 0.03 91 1007.6
20260903125502 54 121 1.0 2.0 0.00 0.61 0.03 91 1007.7
20260903125002 54 119 1.0 2.0 0.00 0.61 0.03 91 1007.6
20260903124502 54 112 1.0 2.0 0.00 0.61 0.03 92 1007.6
20260903124002 54 112 1.0 2.0 0.00 0.61 0.03 91 1007.7
20260903123502 54 116 1.0 2.0 0.00 0.61 0.03 91 1007.7
20260903123002 54 109 1.0 2.0 0.00 0.61 0.03 92 1007.7
20260903122502 54 103 1.0 2.0 0.00 0.61 0.03 92 1007.7
20260903122002 54 108 1.0 2.0 0.00 0.61 0.03 92 1007.7
20260903121502 54 112 1.0 2.0 0.00 0.61 0.03 92 1007.8
20260903121002 54 113 1.0 2.0 0.00 0.61 0.03 92 1007.8
20260903120523 54 108 1.0 2.0 0.00 0.61 0.03 92 1007.7
20260903120002 54 112 1.0 2.0 0.00 0.61 0.03 92 1007.7
20260903115502 53 123 1.0 2.0 0.00 0.61 0.03 92 1007.8
20260903115002 53 118 1.0 2.0 0.00 0.61 0.03 92 1007.8
20260903114502 53 118 1.0 2.0 0.00 0.61 0.03 92 1007.8
20260903114023 53 121 1.0 2.0 0.00 0.61 0.03 92 1007.8
20260903113523 53 113 0.0 2.0 0.00 0.61 0.03 91 1007.8
20260903113023 53 108 0.0 1.0 0.00 0.61 0.03 92 1007.8
20260903112502 53 117 0.0 2.0 0.00 0.61 0.03 92 1007.9
20260903112002 54 112 1.0 2.0 0.00 0.61 0.03 92 1007.9
20260903111502 54 120 1.0 2.0 0.00 0.61 0.03 92 1007.8
20260903111023 54 131 1.0 2.0 0.00 0.61 0.03 92 1007.8
20260903110523 54 134 0.0 2.0 0.00 0.61 0.03 92 1007.8
20260903110023 54 156 0.0 2.0 0.00 0.61 0.03 92 1007.9
20260903105523 54 150 0.0 2.0 0.00 0.61 0.03 92 1007.9
20260903105002 54 138 1.0 2.0 0.00 0.61 0.03 92 1007.9
20260903104502 54 133 1.0 4.0 0.00 0.61 0.03 92 1007.9
20260903104023 54 125 1.0 4.0 0.00 0.61 0.03 92 1008.0
20260903103502 54 128 1.0 2.0 0.00 0.61 0.03 93 1008.0
20260903103002 54 131 1.0 3.0 0.00 0.61 0.03 92 1008.0
20260903102523 54 133 1.0 3.0 0.00 0.61 0.03 92 1008.0
20260903102002 54 129 1.0 3.0 0.00 0.61 0.03 92 1007.9
20260903101502 54 134 1.0 3.0 0.00 0.61 0.03 92 1007.8
20260903101002 54 134 1.0 2.0 0.00 0.61 0.03 92 1007.8
20260903100502 54 138 1.0 2.0 0.00 0.61 0.03 92 1007.7
20260903100023 54 146 1.0 2.0 0.00 0.61 0.03 92 1007.6
20260903095502 54 140 1.0 2.0 0.00 0.61 0.03 92 1007.7
20260903095002 54 138 1.0 3.0 0.00 0.61 0.03 92 1007.6
20260903094502 54 136 1.0 3.0 0.01 0.61 0.03 93 1007.7
20260903094002 54 125 1.0 3.0 0.02 0.61 0.03 93 1007.6
20260903093502 54 122 1.0 3.0 0.02 0.61 0.03 93 1007.7
20260903093023 54 126 1.0 3.0 0.02 0.61 0.03 93 1007.8
20260903092523 54 130 1.0 3.0 0.02 0.61 0.03 93 1007.8
20260903092002 55 125 1.0 3.0 0.02 0.61 0.03 94 1007.8
20260903091502 55 139 0.0 2.0 0.02 0.61 0.03 94 1007.8
20260903091002 55 151 0.0 2.0 0.02 0.61 0.03 94 1007.9
20260903090523 55 121 0.0 2.0 0.02 0.61 0.03 94 1007.9
20260903090002 55 114 0.0 3.0 0.02 0.61 0.03 94 1007.8
20260903085502 55 117 0.0 3.0 0.02 0.61 0.03 94 1007.8
20260903085002 55 0 0.0 0.0 0.02 0.61 0.03 94 1007.9
20260903084523 55 150 0.0 2.0 0.01 0.60 0.02 94 1007.9
20260903084002 55 134 1.0 2.0 0.00 0.59 0.01 94 1007.9
20260903083502 55 128 1.0 3.0 0.00 0.59 0.01 94 1007.9
20260903083002 55 125 1.0 4.0 0.00 0.59 0.01 94 1007.9
20260903082502 55 125 1.0 4.0 0.00 0.59 0.01 94 1008.0
20260903082002 55 129 1.0 5.0 0.00 0.59 0.01 94 1008.0
20260903081502 55 127 1.0 5.0 0.00 0.59 0.01 94 1008.0
20260903081003 55 126 1.0 3.0 0.01 0.59 0.01 94 1008.0
20260903080502 55 131 1.0 2.0 0.01 0.59 0.01 94 1008.0
20260903080023 55 135 1.0 2.0 0.01 0.59 0.01 94 1008.0
20260903075523 55 131 1.0 2.0 0.01 0.59 0.01 94 1008.0
20260903075002 55 127 1.0 2.0 0.01 0.59 0.01 94 1008.0
20260903074503 55 127 1.0 2.0 0.02 0.59 0.01 94 1008.1
20260903074002 55 128 1.0 2.0 0.02 0.59 0.01 94 1008.0
20260903073502 55 128 1.0 2.0 0.02 0.59 0.01 94 1008.0
20260903073002 55 121 1.0 3.0 0.02 0.59 0.01 94 1008.0
20260903072502 55 120 1.0 3.0 0.03 0.59 0.01 94 1008.0
20260903072002 55 123 1.0 4.0 0.04 0.59 0.01 94 1007.9
20260903071502 55 122 1.0 4.0 0.05 0.59 0.01 94 1008.0
20260903071002 55 119 0.0 3.0 0.04 0.58 0.00 94 1008.0
20260903070502 55 123 0.0 1.0 0.05 0.58 0.00 94 1008.0
20260903070003 55 0 0.0 0.0 0.05 0.58 0.00 94 1008.0
20260903065502 55 0 0.0 0.0 0.05 0.58 0.58 94 1008.0
20260903065002 55 118 0.0 4.0 0.05 0.58 0.58 94 1008.0
20260903064502 55 124 1.0 4.0 0.04 0.57 0.57 94 1008.1
20260903064002 55 130 1.0 7.0 0.04 0.57 0.57 94 1008.1
20260903063502 55 144 1.0 7.0 0.04 0.57 0.57 94 1008.0
20260903063002 55 164 1.0 3.0 0.04 0.57 0.57 94 1008.1
20260903062502 55 164 1.0 3.0 0.03 0.56 0.56 93 1008.1
20260903062023 55 172 0.0 2.0 0.02 0.55 0.55 93 1008.1
20260903061523 55 186 0.0 2.0 0.01 0.54 0.54 93 1008.1
20260903061002 55 187 0.0 2.0 0.01 0.54 0.54 93 1008.1
20260903060502 55 184 0.0 2.0 0.00 0.53 0.53 93 1008.1
20260903060002 55 142 0.0 1.0 0.00 0.53 0.53 93 1008.0
20260903055502 55 125 0.0 1.0 0.00 0.53 0.53 93 1008.0
20260903055002 55 125 0.0 1.0 0.00 0.53 0.53 93 1007.9
20260903054502 55 0 0.0 0.0 0.00 0.53 0.53 93 1008.0
20260903054002 55 0 0.0 0.0 0.00 0.53 0.53 93 1008.0
20260903053503 55 122 0.0 1.0 0.00 0.53 0.53 93 1008.0
20260903053023 55 128 0.0 1.0 0.00 0.53 0.53 93 1008.0
20260903052502 55 134 0.0 1.0 0.00 0.53 0.53 93 1008.0
20260903052002 55 0 0.0 0.0 0.00 0.53 0.53 93 1008.0
20260903051503 55 0 0.0 0.0 0.00 0.53 0.53 93 1008.0
20260903051002 55 0 0.0 0.0 0.00 0.53 0.53 93 1007.9
20260903050502 55 0 0.0 0.0 0.00 0.53 0.53 93 1007.9
20260903050002 55 0 0.0 0.0 0.00 0.53 0.53 93 1008.0
20260903045502 56 111 0.0 2.0 0.00 0.53 0.53 93 1007.9
20260903045002 56 111 0.0 2.0 0.00 0.53 0.53 93 1007.9
20260903044503 56 120 0.0 1.0 0.00 0.53 0.53 93 1007.9
20260903044002 56 138 0.0 1.0 0.00 0.53 0.53 93 1007.8
20260903043502 56 148 0.0 1.0 0.00 0.53 0.53 93 1007.8
20260903043002 56 137 0.0 1.0 0.00 0.53 0.53 93 1007.7
20260903042502 56 141 0.0 2.0 0.00 0.53 0.53 93 1007.6
20260903042002 56 140 0.0 2.0 0.00 0.53 0.53 93 1007.5
20260903041523 56 130 0.0 2.0 0.00 0.53 0.53 93 1007.5
20260903041002 56 125 0.0 3.0 0.00 0.53 0.53 94 1007.5
20260903040502 56 123 0.0 3.0 0.00 0.53 0.53 94 1007.4
20260903040023 56 0 0.0 0.0 0.00 0.53 0.53 94 1007.4
20260903035502 56 134 0.0 5.0 0.00 0.53 0.53 94 1007.3
20260903035003 56 118 0.0 5.0 0.00 0.53 0.53 94 1007.1
20260903034502 56 113 0.0 4.0 0.00 0.53 0.53 94 1007.1
20260903034002 56 122 0.0 3.0 0.00 0.53 0.53 94 1007.0
20260903033502 57 117 0.0 1.0 0.00 0.53 0.53 94 1007.0
20260903033002 57 122 0.0 2.0 0.00 0.53 0.53 94 1006.8
20260903032502 57 126 0.0 3.0 0.00 0.53 0.53 94 1006.9
20260903032002 57 127 0.0 3.0 0.00 0.53 0.53 94 1006.9
20260903031502 57 127 1.0 3.0 0.00 0.53 0.53 94 1006.8
20260903031002 57 127 1.0 3.0 0.00 0.53 0.53 94 1006.8
20260903030502 57 126 1.0 2.0 0.00 0.53 0.53 94 1006.8
20260903030002 57 133 0.0 2.0 0.00 0.53 0.53 94 1006.9
20260903025502 57 149 0.0 2.0 0.00 0.53 0.53 94 1006.8
20260903025002 57 120 0.0 1.0 0.00 0.53 0.53 94 1006.7
20260903024523 58 120 0.0 1.0 0.00 0.53 0.53 94 1006.7
20260903024002 58 117 0.0 1.0 0.00 0.53 0.53 94 1006.5
20260903023523 58 125 0.0 2.0 0.01 0.53 0.53 94 1006.4
20260903023002 58 126 0.0 2.0 0.01 0.53 0.53 94 1006.4
20260903022502 58 142 0.0 2.0 0.01 0.53 0.53 94 1006.5
20260903022023 58 133 0.0 11.0 0.01 0.53 0.53 94 1006.3
20260903021502 58 125 0.0 11.0 0.01 0.53 0.53 94 1006.5
20260903021002 58 104 0.0 3.0 0.01 0.53 0.53 94 1006.5
20260903020523 58 91 0.0 4.0 0.01 0.53 0.53 94 1006.3
20260903020002 58 102 0.0 4.0 0.01 0.53 0.53 94 1006.2
20260903015502 58 125 0.0 4.0 0.01 0.53 0.53 94 1006.2
20260903015002 58 123 0.0 4.0 0.01 0.53 0.53 94 1006.2
20260903014502 58 129 0.0 1.0 0.01 0.53 0.53 94 1006.2
20260903014002 58 0 0.0 0.0 0.01 0.53 0.53 94 1006.1
20260903013502 58 0 0.0 0.0 0.00 0.52 0.52 94 1006.0
20260903013002 58 120 0.0 2.0 0.00 0.52 0.52 94 1006.1
20260903012502 58 132 1.0 2.0 0.00 0.52 0.52 94 1006.0
20260903012002 58 148 1.0 3.0 0.00 0.52 0.52 94 1006.0
20260903011502 58 158 1.0 3.0 0.00 0.52 0.52 94 1006.0
20260903011002 59 171 1.0 2.0 0.00 0.52 0.52 94 1005.9
20260903010523 59 184 1.0 4.0 0.00 0.52 0.52 94 1005.9
20260903010002 59 170 0.0 4.0 0.00 0.52 0.52 94 1005.8
20260903005502 59 139 0.0 4.0 0.00 0.52 0.52 94 1005.8
20260903005002 59 125 0.0 5.0 0.01 0.52 0.52 94 1005.7
20260903004502 59 109 0.0 5.0 0.01 0.52 0.52 95 1005.7
20260903004002 59 195 0.0 1.0 0.02 0.52 0.52 95 1005.7
20260903003523 59 0 0.0 0.0 0.04 0.52 0.52 95 1005.6
20260903003002 58 0 0.0 0.0 0.10 0.52 0.52 94 1005.6
20260903002523 58 0 0.0 0.0 0.16 0.52 0.52 94 1005.5
20260903002002 58 145 0.0 1.0 0.20 0.52 0.52 94 1005.6
20260903001502 57 163 0.0 1.0 0.22 0.52 0.52 94 1005.5
20260903001002 57 169 0.0 1.0 0.22 0.52 0.52 94 1005.4
20260903000502 57 0 0.0 0.0 0.22 0.52 0.52 94 1005.5
20260903000002 57 0 0.0 0.0 0.22 0.52 0.52 93 1005.5
20260902235502 57 196 0.0 4.0 0.22 0.52 0.52 93 1005.5
20260902235002 57 180 1.0 16.0 0.21 0.51 0.51 93 1005.4
20260902234502 57 180 2.0 16.0 0.21 0.51 0.51 93 1005.4
20260902234002 57 178 2.0 14.0 0.20 0.50 0.50 92 1005.4
20260902233502 58 184 2.0 11.0 0.18 0.48 0.48 92 1005.5
20260902233002 58 189 1.0 11.0 0.12 0.42 0.42 92 1005.3
20260902232502 59 210 1.0 6.0 0.06 0.36 0.36 92 1005.2
20260902232002 59 207 1.0 9.0 0.02 0.32 0.32 92 1005.2
20260902231502 59 198 1.0 9.0 0.00 0.30 0.30 91 1005.2
20260902231002 59 194 0.0 5.0 0.00 0.30 0.30 90 1005.0
20260902230523 59 189 0.0 11.0 0.00 0.30 0.30 90 1005.0
20260902230002 59 174 1.0 11.0 0.00 0.30 0.30 89 1005.0
20260902225502 60 170 1.0 11.0 0.00 0.30 0.30 89 1004.9
20260902225002 60 176 1.0 9.0 0.00 0.30 0.30 89 1004.9
20260902224502 60 176 1.0 9.0 0.00 0.30 0.30 89 1004.8
20260902224002 60 172 2.0 13.0 0.01 0.30 0.30 89 1004.8
20260902223502 60 162 1.0 13.0 0.01 0.30 0.30 89 1004.8
20260902223002 60 133 0.0 4.0 0.01 0.30 0.30 89 1004.7
20260902222502 60 141 0.0 7.0 0.01 0.30 0.30 89 1004.7
20260902222002 60 145 0.0 7.0 0.01 0.30 0.30 89 1004.7
20260902221502 60 148 0.0 3.0 0.01 0.30 0.30 90 1004.7
20260902221002 60 142 0.0 3.0 0.01 0.30 0.30 90 1004.7
20260902220523 59 123 0.0 3.0 0.01 0.30 0.30 90 1004.7
20260902220002 59 139 0.0 5.0 0.01 0.30 0.30 90 1004.6
20260902215502 59 144 0.0 12.0 0.01 0.30 0.30 90 1004.7
20260902215002 59 126 2.0 19.0 0.01 0.30 0.30 90 1004.6
20260902214502 59 125 2.0 19.0 0.01 0.30 0.30 90 1004.6
20260902214002 59 117 0.0 3.0 0.00 0.29 0.29 92 1004.6
20260902213502 59 176 0.0 1.0 0.00 0.29 0.29 92 1004.6
20260902213002 59 168 0.0 2.0 0.00 0.29 0.29 92 1004.7
20260902212502 59 156 0.0 2.0 0.00 0.29 0.29 92 1004.6
20260902212002 59 99 0.0 1.0 0.00 0.29 0.29 93 1004.7
20260902211502 59 0 0.0 0.0 0.01 0.29 0.29 93 1004.7
20260902211002 59 0 0.0 0.0 0.01 0.29 0.29 93 1004.7
20260902210524 59 0 0.0 0.0 0.02 0.29 0.29 93 1004.7
20260902210002 59 0 0.0 0.0 0.03 0.29 0.29 93 1004.6
20260902205524 59 0 0.0 0.0 0.03 0.29 0.29 94 1004.6
20260902205024 59 0 0.0 0.0 0.05 0.29 0.29 94 1004.6
20260902204523 59 0 0.0 0.0 0.05 0.29 0.29 94 1004.5
20260902204002 59 0 0.0 0.0 0.07 0.29 0.29 94 1004.6
20260902203502 59 0 0.0 0.0 0.09 0.29 0.29 93 1004.5
20260902203023 59 0 0.0 0.0 0.10 0.29 0.29 93 1004.5